Wind_Speed
10 10 10 11 12 12 12 13 14 14 14 15 15 16 16 16 15 15 14 14 13 13 12 11 10 9 10 10 10 9 11 11 13 15 16 18 22 25 27 30 32 34 36 39 39 40 40 40 41 41 41 42 43 46 45 44 40 31 30 35 38 39 37 34 32 31 28 26 25 27 26 25 26 23 22 22 21 20 22 23 18 15 12 14 20 17 13 15
10 11 12 12 13 14 14 14 15 15 15 16 16 17 17 17 16 15 14 14 13 13 12 11 9 9 9 9 9 9 9 10 11 11 10 13 18 20 21 24 26 29 31 34 36 38 38 38 37 37 38 40 41 43 43 44 42 37 35 37 41 41 38 33 31 32 31 29 25 24 26 26 27 25 22 22 23 23 24 23 19 15 13 17 22 20 16 16
12 13 13 14 15 15 16 16 16 16 17 17 18 18 17 16 15 14 14 13 13 12 11 11 10 9 9 10 9 9 10 11 13 11 9 12 14 15 16 18 20 23 26 29 32 35 36 37 35 34 33 36 39 38 39 41 41 41 39 41 42 39 37 35 33 32 31 31 29 26 25 25 27 27 24 23 23 25 25 24 23 22 20 19 25 26 20 17
13 14 15 16 16 16 17 17 17 18 18 19 20 20 17 15 14 14 14 13 13 13 13 12 11 11 11 12 11 11 12 14 17 14 11 14 13 13 14 13 15 18 20 23 27 30 33 34 35 35 31 31 35 34 33 36 39 40 42 46 43 36 36 38 36 34 31 31 33 32 29 27 26 27 28 26 25 28 25 21 20 23 23 20 26 29 22 18
14 15 16 16 17 17 18 18 19 19 19 20 20 19 17 16 14 14 14 14 15 15 15 14 14 14 13 14 14 14 14 12 16 17 14 15 14 14 14 13 14 14 16 18 21 25 28 30 32 34 34 32 29 30 33 34 35 36 40 46 44 39 38 36 35 35 33 32 34 34 34 31 27 27 30 28 27 29 26 22 19 20 21 19 28 32 23 18
14 15 16 17 17 18 18 19 20 20 21 21 20 19 18 17 16 16 15 15 16 16 16 16 16 16 15 17 17 18 15 9 15 20 17 17 17 17 17 16 15 15 15 15 17 20 23 26 29 32 35 34 29 29 33 32 32 35 39 43 44 43 41 36 32 34 35 35 35 35 34 33 31 31 32 30 28 28 28 26 19 18 20 19 24 25 19 19
15 16 16 17 17 18 19 19 20 21 22 22 22 22 20 20 19 19 18 18 18 17 17 17 17 18 17 18 17 18 18 14 21 23 19 20 19 19 19 18 17 17 16 16 16 17 18 21 26 30 30 32 33 31 30 29 31 36 39 40 40 40 40 39 35 33 34 36 37 36 35 34 35 35 33 32 29 25 25 23 18 16 20 20 18 15 12 17
15 16 17 17 18 19 19 20 21 22 23 24 24 24 23 23 22 22 22 22 21 20 20 19 19 19 19 19 19 18 16 17 23 22 19 21 20 19 19 19 19 17 17 17 17 17 18 18 20 24 26 28 31 31 27 27 32 38 40 38 37 37 36 38 39 38 36 35 35 37 40 39 37 34 33 34 31 26 23 20 19 20 19 18 18 16 14 15
16 16 17 18 19 19 20 21 21 22 22 23 24 24 24 25 25 25 25 25 24 24 24 24 23 22 22 22 21 21 16 16 23 23 19 21 20 19 19 19 19 19 18 18 18 18 19 19 18 18 23 24 25 27 27 29 34 37 38 37 36 35 34 34 37 41 41 39 35 36 40 42 40 35 36 38 35 32 26 21 19 22 22 18 19 22 20 18
16 17 18 19 20 20 21 22 21 21 22 22 23 23 23 24 25 26 28 28 27 27 27 28 27 27 26 26 25 23 18 18 23 24 21 20 20 19 20 19 20 19 19 19 18 19 19 20 19 16 20 23 23 25 27 31 34 33 33 35 36 35 33 33 34 37 41 43 41 39 38 38 38 37 42 43 39 37 34 27 22 23 25 24 23 23 20 20
16 17 18 19 20 21 22 22 22 22 22 22 22 22 22 23 24 26 27 29 29 29 29 29 30 30 29 30 30 24 19 20 22 23 22 19 18 18 19 20 20 20 20 20 20 19 19 22 23 20 19 21 24 25 27 30 31 30 30 32 34 35 35 35 35 35 36 41 45 44 41 37 35 38 45 44 37 37 38 35 28 24 22 22 26 26 23 21
16 18 19 20 21 22 22 23 23 23 23 23 22 22 22 23 23 24 26 28 29 30 30 30 31 31 31 32 30 22 20 23 23 23 23 20 18 18 19 20 20 20 21 21 21 21 21 21 24 26 22 16 19 22 25 28 29 29 30 32 33 33 37 39 38 36 35 38 39 41 43 44 44 45 45 39 34 33 33 34 32 28 23 22 25 27 29 27
17 19 20 21 22 23 23 23 23 24 24 24 23 23 23 23 23 23 24 25 27 29 30 30 30 30 32 33 27 22 22 23 23 25 23 20 19 18 17 18 18 19 20 21 21 22 23 22 24 28 27 21 19 20 20 22 27 30 30 33 33 33 37 40 40 39 38 37 34 36 44 50 51 50 43 34 34 35 33 32 30 30 29 27 26 26 31 31
18 20 21 22 23 24 24 24 24 25 25 25 25 25 24 23 24 23 23 24 25 27 27 28 28 28 31 31 26 24 23 22 24 25 21 20 20 18 16 17 18 18 20 20 19 20 22 23 24 28 31 30 24 20 19 18 23 30 30 32 35 36 37 34 37 40 40 38 33 35 46 51 47 45 42 36 35 37 37 36 31 28 29 30 28 26 30 32
19 21 22 23 24 25 25 25 26 26 26 26 26 26 24 24 24 23 23 23 24 24 25 25 25 26 30 29 25 24 23 21 23 22 21 22 20 17 16 16 19 19 20 20 18 18 19 21 25 28 31 34 29 22 22 20 21 27 32 35 36 37 36 31 33 39 42 39 33 36 44 45 41 39 38 39 40 40 40 40 35 31 29 31 31 28 30 33
21 22 24 25 26 26 26 27 26 27 27 27 26 25 24 24 24 23 23 24 24 23 23 23 22 25 28 27 24 24 24 22 21 21 23 23 20 17 17 17 17 19 19 18 17 17 17 19 24 27 27 29 31 27 23 22 23 28 34 37 36 36 36 31 32 37 41 40 37 42 44 38 34 35 35 36 39 42 46 44 39 36 34 33 32 31 31 33
22 23 25 26 27 27 28 27 27 27 27 27 26 23 22 23 23 23 23 24 24 22 21 20 20 25 26 22 18 17 17 15 18 22 21 20 22 19 17 15 13 14 16 16 16 17 18 20 22 25 27 27 29 28 25 25 29 32 35 37 35 35 35 32 31 32 38 41 40 43 46 40 33 32 33 36 36 37 42 42 40 38 37 38 35 33 34 34
23 25 26 27 29 29 29 28 28 28 26 26 24 22 21 21 21 20 20 22 22 18 17 17 17 20 17 15 15 15 12 8 11 23 22 18 22 20 16 13 11 12 14 15 17 19 19 20 21 23 27 30 30 32 34 35 35 34 34 35 33 33 34 35 32 30 35 41 41 40 44 44 38 31 29 33 36 37 37 35 39 41 37 38 36 35 36 35
25 26 27 29 30 30 30 28 28 27 26 24 22 20 17 18 21 20 19 21 18 13 13 14 17 21 16 12 17 18 15 12 14 18 19 13 13 17 15 12 14 15 16 18 20 21 21 20 22 25 30 34 37 40 43 39 32 30 30 31 32 33 34 35 32 30 34 39 42 44 44 41 39 38 33 29 30 35 37 35 40 42 37 36 35 36 36 35
25 27 29 31 31 31 29 28 27 26 26 24 21 18 13 14 16 16 19 20 15 14 15 14 19 26 24 19 19 18 16 18 19 17 19 16 10 14 15 12 15 17 19 22 22 21 22 23 27 32 36 37 38 39 40 36 30 28 28 30 33 35 34 33 33 34 34 37 40 42 42 38 37 39 39 35 30 30 35 38 42 41 37 36 34 36 35 35
26 28 30 32 32 30 28 26 25 25 25 23 21 18 12 10 11 12 19 22 17 18 22 20 22 27 25 22 20 20 20 21 22 20 24 21 13 16 18 14 16 19 22 23 21 20 22 28 32 35 37 35 33 34 36 36 33 31 31 32 33 35 35 31 31 36 36 34 35 36 38 39 37 35 36 39 37 34 35 37 41 41 38 38 36 36 34 34
27 29 31 32 31 29 26 25 24 24 23 21 20 19 12 9 13 15 20 25 22 19 23 22 21 20 17 16 16 17 19 22 22 21 22 20 17 20 19 18 21 21 21 20 21 22 26 33 34 34 34 32 31 32 34 37 36 35 34 33 33 33 34 33 31 34 38 36 31 32 36 37 37 35 34 36 39 41 39 36 41 42 40 39 38 36 35 34
27 29 30 32 30 27 25 24 24 22 20 19 19 18 14 14 17 19 22 30 29 22 19 15 11 12 12 13 15 13 16 19 20 20 20 19 19 19 18 21 24 23 22 22 24 26 29 34 34 33 31 31 33 32 33 37 38 39 37 34 35 33 31 34 36 34 37 38 31 28 31 32 34 36 37 35 36 41 41 37 39 40 38 39 38 36 36 37
27 29 30 31 29 26 24 23 22 20 19 19 19 18 17 17 18 21 25 31 31 21 12 7 5 9 10 11 15 15 16 18 20 19 18 22 23 21 22 23 22 25 25 25 27 29 32 32 30 31 32 33 35 33 35 38 39 41 41 36 33 34 32 31 34 34 34 37 33 28 27 30 34 35 37 37 34 37 38 36 36 37 36 35 35 36 37 38
28 29 30 30 28 24 23 23 20 19 19 19 19 18 17 18 19 23 26 27 26 15 5 2 2 8 12 10 12 14 16 19 21 19 17 22 25 23 24 23 23 26 26 26 27 30 34 33 28 29 33 35 35 36 37 38 38 40 44 41 32 31 34 30 30 33 33 34 36 32 22 23 31 35 36 36 34 35 36 36 36 36 38 35 32 35 36 39
29 29 29 30 27 23 23 22 20 19 19 18 18 17 18 19 20 22 23 21 16 6 2 4 4 7 12 12 11 12 14 17 19 18 18 20 22 24 23 23 23 25 24 24 26 30 32 32 32 30 32 35 36 37 37 38 39 38 42 45 36 31 33 33 33 34 32 31 33 35 23 16 25 33 36 36 34 36 37 36 35 36 38 36 34 36 37 41
29 29 29 29 26 23 21 21 21 19 18 18 18 18 19 19 20 21 17 10 7 3 4 8 9 10 13 13 13 11 11 13 12 13 19 20 20 22 24 24 24 23 22 19 23 30 31 30 32 33 31 35 38 37 37 39 40 37 37 41 39 36 31 31 36 36 34 32 29 33 29 20 23 30 35 36 35 36 39 38 37 37 36 35 36 36 38 43
29 28 28 28 25 22 20 20 20 18 17 17 17 18 19 20 21 17 8 4 4 3 5 9 11 13 15 14 13 13 14 14 11 8 13 17 18 20 24 26 24 23 21 19 24 28 28 28 31 33 32 35 37 36 36 39 41 36 31 36 41 37 30 29 34 36 35 30 26 32 33 21 21 27 31 36 39 38 40 41 38 38 36 35 37 37 39 44
29 28 28 27 25 20 19 19 17 17 17 16 17 18 19 21 18 11 3 3 3 4 8 11 13 14 15 15 15 15 16 15 14 13 11 14 17 18 21 23 22 23 21 23 28 26 23 27 29 32 33 34 34 34 35 38 41 36 29 35 39 34 33 31 29 35 33 24 23 33 35 22 17 27 31 36 42 41 40 41 39 37 36 36 38 38 39 42
28 28 27 27 24 19 17 17 16 17 17 16 17 18 18 19 14 6 3 4 4 8 11 13 15 16 15 16 16 15 15 15 17 19 13 12 17 18 19 18 18 22 21 22 27 26 25 27 27 31 34 33 31 31 35 36 37 35 30 34 37 33 39 38 34 38 27 17 26 34 36 27 16 23 32 35 40 41 39 41 40 38 36 36 38 38 38 40
28 27 27 25 21 17 18 19 20 21 20 19 18 17 17 14 8 4 4 5 9 11 12 14 19 19 17 16 15 15 16 16 16 19 17 13 17 19 18 18 17 19 20 21 24 24 27 29 26 28 32 32 29 30 34 35 36 36 33 34 34 31 37 36 34 34 17 12 30 35 35 32 19 22 31 31 33 37 39 41 41 39 37 37 38 38 38 39
28 27 27 23 17 15 17 19 20 20 20 20 17 16 15 9 4 5 6 10 10 9 16 23 24 21 18 17 16 15 15 16 14 15 18 16 17 20 20 19 18 18 17 18 22 23 26 29 24 21 27 31 30 30 34 36 38 39 37 36 28 20 21 20 17 19 13 16 31 34 31 29 25 26 28 27 29 33 37 38 38 40 39 38 38 38 39 39
28 27 25 20 15 14 17 19 19 19 19 18 16 15 11 4 5 7 11 13 10 14 24 28 27 23 20 20 17 12 12 14 13 12 16 17 17 18 20 21 20 18 15 15 20 21 20 21 20 20 25 30 32 33 35 36 40 43 41 36 25 12 9 9 11 12 14 21 29 33 29 24 25 28 27 27 26 29 35 35 36 39 39 39 38 39 40 40
27 27 22 18 16 17 21 21 20 19 18 15 14 13 7 6 8 11 14 14 16 24 28 28 30 25 19 18 16 10 8 11 11 11 14 16 16 16 19 22 22 21 16 13 15 17 14 13 20 24 24 28 32 34 33 32 38 43 40 35 29 22 14 9 12 11 11 18 26 29 24 19 21 24 27 29 24 25 33 34 36 38 38 38 37 39 41 41
27 25 20 18 20 23 25 23 20 19 16 14 13 10 7 8 11 15 16 17 23 29 30 30 27 20 15 12 12 10 7 9 8 9 13 15 15 16 17 20 22 21 17 12 10 14 16 14 19 25 23 28 35 36 32 27 32 40 38 34 34 33 24 13 14 16 13 13 17 21 21 21 20 16 23 32 25 24 32 33 35 37 36 37 38 40 41 41
27 24 21 22 25 27 27 23 18 16 14 14 12 9 9 11 14 17 19 22 26 28 31 29 19 11 11 9 9 9 8 9 7 8 13 14 16 17 16 16 18 19 21 20 15 14 16 13 16 23 23 30 35 34 32 25 26 36 37 34 34 34 29 18 14 17 14 8 12 18 19 22 22 12 19 31 26 25 33 32 33 34 35 38 39 40 40 40
26 23 21 22 24 26 26 21 16 15 15 15 13 12 12 13 15 19 23 25 25 25 26 23 14 9 8 7 7 5 6 7 6 10 12 11 13 16 16 14 15 18 20 22 20 14 11 10 16 25 26 32 30 26 32 29 25 33 36 34 33 31 29 22 11 8 10 7 10 20 21 22 22 13 16 26 24 26 33 30 30 34 36 38 39 39 39 40
26 22 20 20 22 26 26 20 17 18 17 16 18 17 14 15 18 20 22 23 22 23 23 17 11 10 7 6 8 3 3 6 5 7 9 9 10 11 15 15 15 17 16 17 19 11 5 8 16 27 26 30 27 22 29 30 28 33 34 31 31 26 25 24 13 7 10 7 7 19 23 20 21 18 20 26 26 27 29 26 29 34 37 39 38 38 39 41
26 22 19 22 24 26 23 18 18 19 17 17 19 17 14 18 21 17 16 20 22 23 23 17 10 12 11 9 9 4 3 5 3 5 6 8 9 8 11 13 13 15 14 16 18 11 6 6 13 23 24 25 25 24 27 28 29 33 31 30 32 27 25 27 20 14 13 7 6 14 15 14 21 25 24 26 28 28 26 25 28 33 37 38 38 39 41 41
25 20 19 22 24 24 21 18 18 18 17 19 20 18 19 22 23 17 13 20 24 23 22 19 13 13 14 12 8 2 2 4 3 6 6 8 10 8 9 12 12 12 12 14 15 10 7 7 8 19 24 23 23 25 26 25 27 33 33 32 32 28 26 25 23 22 17 8 6 8 7 13 22 24 23 25 27 29 28 26 28 32 36 37 37 39 41 42
19 16 16 20 23 23 21 18 19 20 19 20 20 21 22 24 23 21 18 20 23 22 21 20 15 11 12 11 8 2 3 5 5 7 6 8 10 8 9 14 11 9 11 14 14 10 9 9 9 16 23 24 24 26 26 24 25 31 33 32 31 28 25 18 15 21 22 14 11 8 6 14 20 21 24 26 25 27 29 28 29 32 35 37 38 39 41 42
15 12 14 18 22 23 19 16 19 21 19 17 18 20 21 22 23 22 20 21 21 20 19 19 15 10 11 10 5 2 4 6 6 7 7 7 9 7 7 12 11 9 11 13 12 10 10 9 11 16 22 24 23 24 26 24 25 31 30 29 30 27 24 18 11 18 23 19 19 14 7 12 18 18 23 27 25 25 26 28 31 32 33 36 38 39 41 41
11 10 14 18 22 22 17 14 15 16 14 13 17 19 19 21 23 21 19 20 20 17 17 19 15 8 8 6 4 5 5 6 7 9 8 6 7 7 7 10 12 11 10 10 9 8 9 7 8 13 18 21 22 23 25 24 25 31 29 28 28 23 23 20 14 19 21 18 20 14 5 13 22 19 20 26 26 24 24 28 30 31 33 37 40 41 41 39
10 9 17 23 24 19 12 11 14 16 14 15 19 20 19 22 22 19 19 20 19 16 16 19 16 10 9 8 6 6 6 6 7 8 8 8 8 9 8 10 13 12 10 10 9 9 9 5 7 10 10 14 17 19 23 25 26 29 28 28 26 22 23 19 15 20 19 18 20 13 5 13 24 24 21 22 24 23 24 27 28 30 34 38 40 42 40 39
13 10 14 22 23 16 10 11 17 19 17 19 23 22 21 25 21 16 19 21 19 18 17 18 14 10 11 9 6 6 6 8 8 7 9 10 9 10 9 11 14 13 11 9 7 7 7 5 8 10 7 8 11 14 19 23 24 24 25 27 25 23 23 18 15 15 13 17 24 16 10 14 19 23 22 19 20 23 25 27 27 30 33 34 36 39 38 37
15 9 14 19 17 13 13 15 19 20 17 20 24 23 23 27 23 18 21 23 20 18 15 13 11 9 10 8 6 7 7 10 9 7 9 9 9 9 9 11 14 13 12 12 8 5 6 8 10 13 13 14 18 23 25 24 23 22 23 27 25 23 24 17 12 13 13 17 18 12 17 22 20 21 21 18 19 23 26 28 28 30 32 31 33 35 36 35
15 11 17 18 13 10 11 11 14 15 15 18 22 23 23 27 25 24 26 25 21 19 16 14 11 10 10 8 6 8 7 8 11 11 11 11 12 10 7 10 14 13 12 14 11 8 9 9 8 12 14 14 19 28 29 26 25 23 23 26 26 25 25 16 9 14 15 10 6 12 20 22 19 19 20 19 20 23 27 29 28 30 33 34 34 34 33 33
15 14 18 20 17 14 10 8 10 15 18 18 19 21 22 24 25 27 29 26 21 19 17 17 14 9 7 5 6 9 6 4 9 10 8 10 12 8 6 11 13 13 13 11 9 10 10 9 7 10 12 14 15 24 29 26 24 23 20 23 26 26 23 16 11 14 9 5 12 17 16 14 15 16 18 20 18 20 26 27 28 31 34 36 38 35 33 33
15 15 17 18 18 16 11 11 14 18 21 19 16 19 21 22 24 26 27 26 23 18 17 19 20 14 6 4 7 7 2 4 6 5 6 11 13 10 9 12 13 12 11 7 9 12 10 7 7 9 11 13 14 19 27 28 24 23 21 21 24 25 23 18 12 10 6 15 17 16 14 10 9 13 20 21 17 19 24 24 27 35 37 37 38 35 32 32
15 15 15 16 17 16 13 14 16 17 19 17 15 19 21 20 24 26 24 23 23 22 20 21 21 17 12 10 10 7 3 3 4 5 7 11 13 11 10 11 11 10 10 8 10 14 10 6 6 8 9 12 12 14 21 28 26 22 21 22 22 23 24 20 12 9 13 16 15 15 13 7 6 14 20 22 19 20 24 23 26 34 37 35 34 32 31 31
16 16 17 16 17 15 13 14 17 18 17 15 17 22 21 19 23 26 23 18 19 22 25 25 22 17 14 12 10 7 4 1 2 5 9 13 13 10 9 10 8 8 11 10 9 11 9 5 5 8 8 10 11 11 16 25 27 22 22 24 23 22 22 21 15 14 14 12 11 14 12 5 6 15 18 21 21 20 23 25 24 27 30 29 27 27 29 31
16 16 17 17 17 16 14 16 17 16 14 15 20 22 20 19 22 24 22 19 17 20 24 24 22 19 16 14 11 6 3 1 1 3 6 8 10 10 11 10 6 6 10 11 9 9 9 9 8 8 6 8 11 12 16 22 23 19 21 25 26 24 22 20 16 12 12 10 9 13 13 8 6 9 13 20 22 18 20 25 25 25 26 25 24 24 25 27
Wind_Direction
329 330 326 325 324 324 325 322 321 318 316 312 310 308 305 302 299 296 293 289 285 282 278 275 272 266 265 267 266 264 263 263 261 258 256 254 250 248 249 248 247 246 244 244 242 241 241 240 239 239 239 238 238 236 233 232 227 221 225 230 233 234 233 233 234 236 240 245 241 238 241 241 239 238 235 236 239 233 237 246 239 232 230 232 232 226 230 230
329 328 325 325 324 326 326 325 324 321 319 316 314 311 309 306 303 300 295 292 288 284 280 277 273 267 266 267 268 267 265 268 262 258 257 253 252 252 251 250 249 247 243 242 241 240 239 237 236 236 237 237 237 237 235 232 227 220 222 229 233 234 233 233 234 235 238 245 245 241 241 239 237 240 238 230 233 235 236 243 241 230 218 229 240 233 232 232
328 328 326 326 326 328 328 329 327 325 324 321 319 315 311 305 301 300 298 297 293 289 285 280 276 273 274 273 278 279 275 280 271 259 256 252 254 256 254 254 253 251 246 242 240 238 237 235 232 230 232 235 235 235 235 233 228 222 223 229 234 234 233 233 235 237 237 240 243 245 245 240 236 237 238 229 230 238 236 233 236 239 231 230 244 244 240 236
328 329 328 327 327 328 329 330 328 327 325 321 320 316 310 302 297 298 297 297 295 294 291 288 287 285 285 284 286 286 289 295 280 265 260 258 256 256 256 256 255 255 251 245 241 238 236 234 232 227 224 230 233 230 229 230 227 224 224 230 234 233 233 235 234 236 237 237 241 245 246 246 240 236 238 234 229 240 246 235 232 239 236 232 241 245 243 239
327 328 328 327 327 327 328 328 327 326 324 321 319 313 305 295 292 293 293 294 294 294 294 293 292 291 293 293 294 294 301 311 287 274 266 264 264 263 264 261 258 258 255 250 244 238 235 231 229 227 223 223 226 225 225 224 226 226 227 230 233 232 234 237 234 234 234 237 242 243 242 245 244 239 240 240 229 234 247 242 238 244 242 238 235 235 237 238
323 325 326 325 325 325 326 326 325 323 320 318 317 313 302 290 288 288 288 290 291 293 293 293 292 291 290 291 295 295 297 302 284 279 273 272 274 273 272 268 264 263 260 256 248 240 235 228 224 223 223 222 219 222 225 222 222 228 231 232 233 234 235 235 233 233 233 237 242 239 238 242 245 244 240 241 235 232 240 242 245 245 241 242 228 220 224 230
319 322 323 323 323 322 321 320 318 317 315 312 311 310 304 292 286 285 287 287 288 290 290 291 291 290 289 289 292 293 294 290 278 278 279 278 277 274 273 270 266 264 262 259 252 243 236 228 223 220 220 223 222 222 225 223 222 228 233 233 233 235 234 233 232 233 234 236 239 236 238 241 242 246 242 240 237 227 227 235 242 241 243 251 237 212 212 220
316 318 319 319 319 317 316 314 312 312 310 309 307 305 303 297 287 282 282 283 285 288 288 290 290 291 292 291 292 293 300 296 283 283 281 276 274 272 271 269 266 262 260 258 252 245 237 229 223 221 221 224 226 226 225 225 227 229 233 234 234 235 234 234 233 233 234 235 237 234 237 240 239 243 244 239 237 232 226 229 232 232 241 259 259 247 241 226
315 315 316 315 314 313 311 310 310 310 308 306 305 303 301 298 292 284 281 283 286 289 291 293 293 296 296 296 297 296 300 298 290 289 282 275 275 273 268 266 266 262 258 256 253 247 240 232 223 221 229 229 229 231 226 226 229 229 232 235 234 235 233 234 233 232 233 234 235 235 236 238 237 240 243 237 235 236 234 233 233 231 234 245 260 261 257 234
317 316 315 314 313 312 311 311 310 309 308 305 305 305 302 298 294 287 282 282 285 288 291 292 295 298 299 301 298 296 302 299 290 288 283 278 278 276 272 269 266 263 260 255 252 249 241 234 223 216 233 236 230 232 229 228 232 231 233 236 235 234 233 233 233 232 231 231 232 235 239 239 236 239 241 237 233 235 234 237 241 237 236 237 243 253 254 236
321 319 318 316 316 316 315 314 312 309 307 306 307 307 304 298 293 288 284 282 282 284 286 288 292 293 297 298 294 299 304 293 286 285 284 279 276 276 275 272 268 264 261 257 252 249 243 235 224 215 227 235 232 233 232 230 233 235 235 238 237 234 234 233 231 230 229 230 229 233 240 239 237 238 238 235 232 230 231 238 245 242 239 235 231 240 249 245
323 322 320 320 321 321 320 317 314 310 308 308 309 308 304 299 294 290 286 282 280 280 280 283 286 290 293 290 291 302 298 288 285 282 280 278 276 275 273 271 268 263 258 256 252 247 245 239 229 221 218 224 234 237 236 233 233 236 235 238 238 234 233 231 229 228 227 230 229 229 237 237 234 235 236 233 228 225 228 238 245 242 239 237 227 233 247 248
324 324 324 325 325 324 322 320 316 312 310 309 307 305 303 300 295 292 288 285 281 279 279 281 284 288 289 287 294 301 291 287 283 277 276 277 275 274 272 269 263 259 255 251 249 247 244 240 234 228 218 210 219 227 230 232 233 234 232 235 237 234 233 229 227 226 226 229 226 223 232 234 231 233 232 229 226 226 231 240 245 240 236 238 229 226 241 245
327 328 328 327 327 326 324 322 318 314 311 308 306 304 305 301 295 293 290 286 282 280 280 281 284 286 284 287 296 296 289 285 278 275 275 272 270 270 269 266 262 257 253 250 247 246 246 242 235 231 224 213 208 216 222 226 231 229 229 232 231 231 232 227 223 222 222 225 222 220 231 233 230 230 228 225 227 227 234 242 242 237 233 235 227 223 239 246
331 330 329 328 327 326 325 322 318 314 310 307 305 306 307 301 295 295 291 288 284 281 282 282 285 286 285 290 296 295 291 281 273 271 268 265 265 264 264 265 264 258 250 247 246 247 250 248 238 231 229 219 209 213 221 226 230 222 221 225 224 226 230 226 221 218 217 219 216 218 229 232 227 229 227 226 231 232 237 240 237 233 230 233 228 225 241 248
332 330 329 328 328 327 324 321 317 313 310 308 309 311 309 301 298 296 292 289 285 283 284 285 287 285 284 290 297 297 292 288 287 273 259 259 258 258 268 270 264 262 258 251 252 256 257 255 245 234 231 224 214 213 219 228 230 217 216 220 219 220 224 222 220 216 214 216 215 217 226 230 226 228 227 227 234 235 237 237 236 233 229 235 235 229 237 246
331 330 329 328 328 326 323 321 317 313 311 312 315 316 312 304 302 300 297 292 287 287 286 286 287 283 286 297 298 293 293 308 311 286 262 252 250 252 265 269 262 260 264 262 258 259 258 255 245 234 228 224 217 215 220 224 220 214 214 218 218 217 218 217 218 216 212 213 214 217 225 230 229 230 228 229 232 232 236 236 235 232 229 236 238 232 232 240
330 330 331 329 328 326 324 322 317 314 314 317 320 320 315 306 304 306 304 296 292 293 293 293 282 273 288 312 300 288 294 294 273 276 276 261 254 260 260 251 242 238 242 245 246 249 252 248 238 231 227 223 216 212 216 217 213 211 211 213 216 216 216 215 215 213 207 208 212 217 227 231 229 230 230 229 228 227 233 234 230 228 229 233 234 231 230 233
331 332 332 330 328 327 325 322 318 316 318 321 323 323 319 311 313 320 314 302 300 301 299 302 290 280 281 283 280 283 293 277 248 263 279 271 263 268 263 239 225 225 227 229 235 240 241 234 225 223 222 220 216 212 214 216 214 216 214 212 214 215 218 216 214 212 203 204 213 220 227 229 227 227 227 227 227 228 230 229 228 226 225 229 228 228 227 227
333 333 333 331 330 328 326 323 320 320 322 324 325 325 321 320 325 324 308 297 298 299 288 278 276 284 283 272 272 274 275 272 261 253 256 266 281 264 257 242 226 225 225 225 230 233 228 225 221 220 221 220 218 217 218 220 221 222 220 217 216 216 220 217 213 214 206 207 215 220 224 226 225 226 226 226 227 229 229 226 227 223 219 222 223 226 224 224
335 334 334 333 331 330 328 325 323 323 324 325 327 326 323 329 323 302 288 282 286 297 292 277 264 270 277 277 278 273 269 265 259 251 246 257 269 249 242 233 223 225 228 227 231 231 225 227 228 225 224 222 221 222 221 221 223 226 224 220 217 217 219 217 213 212 210 211 216 217 220 223 224 225 226 225 226 229 226 224 225 220 218 218 218 223 222 222
335 335 335 334 333 332 330 327 326 325 326 326 326 326 321 318 309 301 296 292 298 305 297 286 267 267 284 293 289 274 263 259 255 250 243 243 241 233 229 225 224 229 233 233 234 234 230 231 232 229 227 224 223 223 221 221 221 226 229 224 218 216 216 219 218 213 211 215 217 214 218 223 224 226 227 224 225 227 224 226 226 220 219 218 215 219 221 219
335 335 336 336 335 334 331 329 328 327 328 327 326 327 319 308 305 309 309 304 311 316 299 285 272 296 322 313 301 278 251 254 257 252 243 236 230 224 222 225 230 234 236 235 234 234 234 233 232 229 227 224 224 222 220 219 219 224 230 229 222 215 211 215 217 214 213 218 217 213 218 223 224 226 227 224 224 225 226 229 223 215 217 219 215 217 219 218
335 335 336 337 336 334 332 330 332 330 329 330 329 330 324 317 315 317 316 311 316 324 307 290 287 296 297 285 285 271 252 253 254 249 238 229 226 227 229 229 232 238 238 237 236 237 239 236 231 227 224 222 222 221 218 215 216 221 225 228 225 216 212 213 214 212 213 219 217 210 217 224 221 222 223 222 223 225 226 225 215 211 217 218 216 217 217 218
335 335 336 337 337 335 333 333 335 333 332 334 332 332 328 325 323 321 321 319 321 328 312 262 221 250 262 277 286 272 261 256 251 247 234 227 227 227 230 230 232 238 239 238 239 240 240 236 228 224 222 220 220 220 217 212 213 218 221 225 226 220 215 210 211 208 207 216 212 201 211 224 219 219 219 217 219 220 221 219 214 215 218 217 215 214 213 216
337 337 336 338 337 336 335 334 337 337 335 336 334 332 329 326 326 325 326 322 316 320 240 231 232 263 278 289 288 277 271 266 259 248 231 225 226 224 228 230 231 237 241 242 242 239 238 233 226 225 222 218 219 220 217 211 210 216 219 219 224 230 221 209 211 210 204 212 208 198 207 227 218 217 216 213 213 215 216 215 213 216 217 214 213 211 211 216
337 338 338 339 338 336 336 335 336 338 335 334 334 331 329 328 328 330 330 316 283 234 222 240 248 277 290 289 279 266 265 275 274 249 229 225 223 222 229 231 229 237 241 242 242 236 233 229 224 224 221 216 217 218 215 210 211 215 214 213 221 232 227 210 211 214 207 208 204 197 206 228 228 216 211 210 211 212 214 213 210 213 213 210 209 207 208 215
338 339 339 340 338 335 337 337 336 336 334 333 332 329 329 328 329 335 339 305 269 227 230 250 266 289 296 293 280 262 258 270 275 242 217 223 223 219 228 232 231 237 239 236 240 237 232 227 223 221 218 214 214 216 214 210 211 214 210 209 217 225 226 214 212 217 212 206 206 202 202 219 236 220 205 205 209 211 211 210 209 210 209 205 205 204 206 214
339 340 340 340 338 335 336 337 335 335 334 333 330 328 328 328 333 342 312 257 266 240 254 274 295 308 305 297 289 279 271 262 249 229 207 215 223 220 226 234 236 239 240 235 239 244 236 226 222 221 218 213 212 214 215 210 209 212 209 206 213 221 226 225 220 218 213 205 211 210 202 206 231 222 206 201 207 210 208 208 208 207 205 203 203 202 206 214
339 341 341 341 338 334 335 336 336 337 336 335 332 329 330 332 338 336 247 241 282 283 281 291 307 312 309 301 290 280 272 258 245 238 227 219 226 229 229 232 236 239 242 240 242 248 242 230 225 223 220 214 211 215 216 210 205 208 209 204 207 216 223 231 227 215 210 205 213 214 208 207 220 220 210 202 204 207 206 206 207 206 203 201 202 201 204 211
341 342 342 343 340 339 342 342 341 339 337 337 333 331 336 339 332 292 248 289 302 293 292 304 312 309 305 300 286 275 271 268 260 242 228 224 226 226 226 226 226 230 238 243 245 249 246 243 239 225 217 214 215 216 214 208 203 207 207 197 199 211 221 227 221 210 211 210 209 213 212 209 212 217 212 208 205 204 205 206 205 204 201 200 201 200 201 208
342 343 344 346 347 348 348 345 341 335 331 332 331 334 342 342 306 257 277 314 310 298 309 314 315 310 303 297 284 277 274 272 272 243 224 225 225 220 220 219 213 215 229 236 240 246 243 244 243 223 213 214 217 217 212 207 204 206 205 196 195 208 215 216 205 202 220 217 206 209 213 214 216 217 213 212 207 202 204 206 203 202 201 200 202 199 200 206
343 345 347 349 352 356 351 344 340 334 329 330 333 340 343 316 280 285 306 318 304 301 314 317 316 310 300 294 283 273 268 263 262 245 228 225 224 224 222 219 213 213 225 233 233 235 233 233 232 220 214 212 214 216 209 201 199 203 204 200 199 196 189 198 197 197 214 215 207 205 212 222 219 214 214 214 210 202 201 204 202 203 202 202 202 199 199 203
344 346 348 353 0 1 355 347 341 336 332 334 340 342 323 265 284 312 320 315 302 307 315 319 319 312 302 294 284 279 272 260 251 239 234 227 226 230 223 220 218 217 233 254 241 226 218 223 219 214 211 206 209 214 204 194 196 201 203 200 197 194 190 193 197 198 202 205 204 201 208 222 213 210 212 210 211 204 198 198 201 203 204 202 201 198 198 200
346 346 343 355 7 5 358 349 341 339 338 342 345 329 291 278 301 316 319 311 308 312 318 325 326 315 310 306 289 283 270 262 261 235 226 224 228 230 221 218 216 217 230 248 253 229 219 230 219 208 206 200 201 203 198 197 199 198 200 200 195 194 196 196 197 203 203 199 203 203 208 215 211 213 205 200 209 207 193 192 197 201 202 200 198 197 196 196
346 344 343 359 9 5 355 347 343 344 347 352 346 316 292 298 302 303 310 313 313 316 321 329 334 317 313 315 298 292 269 262 262 230 227 230 232 229 221 218 211 216 227 232 247 237 219 231 210 195 198 194 195 198 196 200 202 194 196 199 196 196 199 200 201 202 201 199 202 203 206 207 208 214 195 196 207 200 186 189 196 199 200 197 197 197 196 195
345 344 352 2 4 0 353 347 346 348 356 0 343 321 311 309 309 311 316 315 311 316 323 324 324 316 315 313 307 295 257 259 238 226 236 234 234 228 219 219 210 212 225 236 250 242 226 246 200 185 193 190 194 207 200 202 207 196 195 197 197 201 204 205 209 200 198 203 198 201 204 198 198 198 188 196 202 186 180 189 198 200 199 196 196 197 195 196
343 346 1 1 353 356 355 348 350 356 1 353 333 327 324 318 322 320 315 311 307 315 325 324 309 304 311 329 345 357 231 255 229 228 245 234 241 232 212 216 216 213 223 237 247 246 274 272 195 185 196 187 187 207 208 214 217 199 195 197 196 199 201 200 208 203 194 199 196 200 201 195 193 192 187 195 196 182 178 187 195 197 196 194 194 196 194 195
344 350 3 357 346 351 353 346 354 1 356 343 333 328 320 320 330 329 313 311 311 315 325 332 318 301 305 323 346 11 225 264 240 228 249 234 241 238 208 213 219 221 228 232 240 254 295 278 186 182 193 186 185 201 212 226 223 203 196 197 198 202 199 194 201 207 197 197 205 195 194 199 200 194 187 190 192 187 182 186 192 193 192 192 193 194 194 196
346 352 357 353 345 345 349 350 359 358 345 341 339 329 318 322 337 349 333 315 316 317 321 332 329 303 302 317 331 334 228 282 235 221 249 234 236 253 224 211 216 225 224 221 232 247 254 255 200 181 185 188 194 202 209 221 219 206 199 197 200 208 206 197 202 209 201 194 206 189 187 207 200 189 183 185 188 191 191 190 192 191 190 192 193 193 195 198
348 351 345 349 349 345 343 350 1 355 342 342 337 325 321 323 333 344 338 320 320 322 320 329 334 313 307 322 331 318 256 271 218 210 246 239 239 262 228 203 208 221 214 214 227 236 231 239 226 190 182 189 201 202 204 213 211 201 198 198 199 203 206 199 196 204 203 200 202 195 193 202 197 186 181 182 183 186 192 193 191 191 191 191 191 192 197 201
354 345 333 342 349 344 339 350 360 351 341 336 328 323 324 325 329 335 333 326 325 325 324 331 334 322 321 326 333 329 271 265 235 218 240 244 240 253 225 203 206 217 215 213 223 233 229 226 219 201 188 191 202 202 204 212 209 201 202 203 199 200 208 207 190 193 200 199 196 196 195 196 200 192 175 177 184 184 188 191 189 190 191 189 189 192 198 204
356 336 336 345 346 341 336 345 351 341 333 325 327 335 335 333 334 332 329 329 325 323 327 331 332 325 318 311 307 318 291 267 253 234 238 256 237 226 225 212 210 222 228 225 229 231 226 225 217 203 191 192 201 207 214 220 212 203 204 206 203 201 206 209 195 188 198 203 193 189 195 195 199 195 173 174 186 188 188 188 187 188 188 188 190 192 198 204
357 356 351 344 340 339 335 334 335 334 332 328 334 345 345 343 344 335 330 330 323 322 323 322 326 324 314 297 273 291 296 277 263 236 240 263 244 227 227 216 214 219 222 234 241 210 200 232 230 202 186 190 197 206 219 224 216 208 208 211 210 199 198 207 195 186 202 208 191 181 194 191 186 184 174 170 179 186 187 184 184 186 186 188 191 194 200 205
4 20 351 333 332 339 341 337 338 337 332 329 339 348 344 345 351 344 338 335 328 327 325 320 321 318 324 322 279 273 275 263 265 254 251 256 238 224 222 215 214 213 215 243 258 199 194 242 227 203 188 180 185 198 211 213 215 219 216 210 205 193 195 212 209 197 202 199 195 193 176 158 155 163 169 169 175 184 186 182 183 183 182 186 192 196 201 205
9 5 331 331 335 336 337 339 340 338 328 327 339 346 341 342 347 347 346 343 340 343 344 344 340 322 329 336 300 290 275 248 250 257 252 249 234 222 223 221 215 209 217 239 245 221 241 256 228 210 200 186 185 193 199 197 201 215 213 203 200 195 196 209 221 216 207 198 202 187 145 134 131 150 167 174 180 185 184 183 184 185 184 189 196 199 204 207
6 337 327 345 354 341 337 334 328 328 327 330 338 342 340 339 340 344 347 348 348 351 1 16 11 336 333 343 312 305 293 235 233 244 247 242 228 212 209 220 215 211 224 238 237 237 262 268 237 216 214 208 195 191 194 196 197 202 205 200 199 198 198 202 214 215 213 206 167 124 129 138 142 153 169 179 183 186 184 182 182 185 187 191 196 200 205 206
353 335 334 352 354 343 337 334 333 336 339 342 341 340 338 335 336 341 345 346 344 342 353 13 16 354 334 337 321 321 324 213 214 231 241 231 216 206 216 218 213 218 231 240 234 239 270 282 233 219 238 245 222 199 197 200 198 195 199 200 198 196 195 196 209 219 213 113 110 124 134 146 153 159 172 183 188 183 180 183 186 186 186 189 193 198 201 201
346 340 340 347 348 346 348 353 353 347 344 344 341 339 336 333 335 341 343 340 338 340 350 4 13 19 19 343 335 344 26 156 183 208 231 223 213 219 231 214 206 222 234 234 227 238 275 290 218 218 251 253 235 209 197 195 197 196 195 196 196 194 193 193 210 221 154 102 108 124 122 121 149 162 164 173 185 179 172 178 183 182 183 189 195 199 201 203
344 344 343 341 345 357 9 7 356 344 339 340 338 339 336 330 333 342 346 341 339 344 347 351 4 20 23 8 3 17 60 144 165 187 212 211 206 216 223 209 209 223 221 221 231 233 252 280 228 220 251 247 234 225 206 195 196 199 195 194 194 193 195 191 177 151 135 119 112 122 117 106 171 172 162 163 172 176 177 178 177 178 184 191 195 197 196 198
345 345 345 345 350 360 15 14 360 346 339 337 338 337 333 330 335 340 343 342 345 345 340 341 354 10 14 10 10 17 24 60 181 194 199 196 198 210 209 200 213 229 216 219 239 233 234 269 230 208 243 244 224 240 232 202 192 199 202 197 195 199 203 195 164 132 133 138 132 129 117 94 177 177 171 167 165 170 183 188 183 182 187 192 195 197 194 193
346 346 342 345 352 358 10 8 354 344 340 338 338 334 330 335 340 339 339 346 350 341 334 343 357 6 11 9 4 11 29 30 174 161 176 186 194 201 196 190 213 241 221 218 234 237 243 266 248 214 228 229 207 224 231 203 188 200 205 194 193 201 206 197 176 143 135 152 151 130 112 93 132 162 173 177 172 168 178 189 187 184 187 192 197 202 199 195
Height
3093 3092 3091 3091 3090 3089 3089 3088 3087 3086 3085 3085 3084 3083 3083 3082 3082 3081 3081 3081 3080 3080 3080 3080 3080 3079 3079 3078 3078 3079 3079 3079 3079 3080 3081 3081 3081 3082 3083 3085 3087 3089 3091 3093 3096 3098 3101 3104 3107 3110 3112 3114 3116 3119 3123 3127 3131 3135 3135 3132 3129 3129 3131 3134 3137 3138 3139 3140 3141 3143 3144 3145 3145 3147 3149 3150 3151 3154 3155 3155 3156 3157 3159 3157 3151 3156 3160 3160
3093 3092 3091 3090 3089 3088 3088 3087 3086 3085 3084 3083 3083 3082 3081 3081 3080 3080 3080 3079 3079 3079 3079 3079 3079 3078 3078 3077 3077 3077 3077 3077 3077 3078 3079 3078 3078 3080 3081 3082 3083 3085 3087 3089 3091 3094 3097 3100 3103 3106 3108 3110 3112 3115 3118 3122 3126 3128 3129 3126 3122 3124 3128 3133 3136 3137 3139 3139 3139 3141 3142 3143 3144 3145 3147 3148 3150 3153 3154 3155 3156 3155 3158 3156 3149 3154 3159 3159
3092 3091 3090 3089 3088 3087 3086 3086 3085 3084 3083 3082 3081 3080 3080 3079 3079 3079 3078 3078 3078 3077 3077 3077 3077 3077 3077 3076 3076 3076 3076 3075 3075 3076 3077 3077 3077 3078 3079 3080 3081 3082 3084 3086 3087 3090 3092 3095 3099 3102 3104 3106 3108 3111 3114 3117 3120 3122 3123 3119 3117 3123 3127 3130 3133 3135 3137 3138 3139 3139 3140 3141 3142 3144 3144 3146 3149 3150 3151 3153 3155 3154 3156 3156 3147 3149 3158 3158
3091 3090 3089 3088 3087 3086 3085 3084 3083 3082 3081 3080 3079 3078 3078 3078 3078 3077 3077 3076 3076 3076 3076 3075 3076 3075 3075 3074 3074 3074 3074 3073 3072 3074 3076 3075 3076 3077 3078 3079 3079 3080 3081 3083 3084 3086 3088 3092 3095 3097 3100 3101 3104 3108 3109 3112 3114 3116 3116 3113 3116 3122 3123 3127 3131 3133 3136 3137 3137 3137 3138 3139 3140 3142 3142 3143 3146 3146 3148 3150 3153 3152 3153 3156 3146 3142 3153 3156
3090 3089 3088 3087 3086 3085 3084 3083 3082 3081 3080 3079 3078 3077 3076 3076 3076 3075 3075 3075 3074 3074 3074 3074 3074 3074 3074 3073 3073 3072 3073 3072 3069 3071 3074 3074 3075 3075 3076 3077 3077 3078 3079 3080 3081 3083 3085 3088 3091 3093 3096 3097 3101 3103 3104 3107 3111 3112 3111 3110 3115 3118 3119 3125 3129 3131 3133 3134 3135 3136 3136 3137 3139 3140 3140 3140 3142 3143 3147 3148 3151 3152 3151 3153 3144 3137 3147 3153
3089 3088 3087 3086 3085 3084 3083 3082 3081 3080 3079 3078 3077 3076 3075 3074 3074 3073 3073 3073 3073 3073 3072 3072 3072 3072 3072 3072 3071 3070 3072 3071 3067 3068 3072 3072 3073 3073 3073 3074 3075 3076 3077 3078 3079 3081 3082 3085 3087 3089 3091 3093 3097 3099 3100 3105 3109 3108 3107 3108 3111 3114 3117 3123 3126 3127 3130 3132 3131 3133 3135 3137 3137 3137 3137 3138 3139 3142 3146 3146 3149 3151 3148 3148 3143 3139 3145 3148
3088 3087 3086 3085 3084 3083 3082 3081 3080 3079 3078 3077 3076 3075 3074 3073 3072 3071 3071 3070 3070 3071 3070 3071 3070 3070 3070 3070 3070 3069 3070 3069 3065 3067 3070 3070 3070 3071 3071 3072 3073 3074 3075 3076 3077 3079 3080 3082 3084 3086 3088 3090 3092 3095 3099 3103 3105 3104 3102 3105 3108 3111 3115 3119 3122 3124 3127 3128 3129 3132 3133 3134 3135 3134 3135 3136 3136 3139 3142 3143 3147 3148 3144 3142 3143 3144 3145 3146
3087 3086 3085 3084 3083 3082 3081 3080 3079 3078 3076 3075 3074 3073 3072 3071 3070 3069 3069 3068 3068 3068 3068 3068 3068 3068 3068 3068 3068 3067 3068 3065 3063 3065 3068 3067 3067 3069 3069 3070 3071 3072 3073 3073 3075 3076 3077 3079 3081 3084 3086 3087 3090 3093 3097 3101 3101 3099 3099 3102 3106 3109 3112 3115 3118 3120 3123 3124 3126 3129 3130 3130 3132 3133 3133 3134 3136 3138 3139 3141 3144 3147 3144 3140 3139 3144 3146 3146
3086 3085 3084 3083 3082 3081 3079 3078 3077 3076 3075 3073 3072 3071 3070 3069 3067 3067 3066 3065 3065 3064 3064 3064 3064 3065 3065 3064 3064 3064 3065 3064 3061 3062 3064 3064 3065 3066 3066 3067 3068 3069 3070 3071 3073 3074 3075 3077 3079 3082 3083 3085 3088 3090 3094 3096 3094 3095 3097 3100 3103 3105 3109 3112 3113 3116 3118 3121 3123 3125 3124 3125 3128 3131 3131 3131 3134 3136 3138 3139 3141 3144 3145 3143 3139 3138 3143 3145
3084 3083 3082 3081 3080 3079 3078 3077 3075 3074 3073 3071 3070 3069 3068 3066 3065 3064 3063 3062 3062 3061 3060 3060 3060 3060 3060 3060 3061 3061 3062 3062 3059 3058 3060 3062 3062 3062 3063 3064 3065 3066 3067 3069 3070 3071 3073 3075 3077 3079 3080 3082 3084 3086 3089 3091 3090 3094 3097 3098 3100 3102 3106 3108 3109 3111 3114 3117 3120 3120 3120 3122 3126 3128 3125 3126 3131 3134 3136 3137 3139 3141 3141 3145 3142 3136 3137 3142
3083 3082 3081 3080 3079 3077 3076 3075 3074 3072 3071 3069 3068 3067 3065 3064 3063 3061 3060 3060 3059 3059 3058 3057 3057 3057 3057 3056 3056 3058 3060 3058 3056 3055 3057 3059 3059 3060 3060 3061 3062 3064 3064 3066 3067 3069 3070 3072 3074 3075 3076 3078 3080 3082 3084 3086 3089 3092 3094 3095 3096 3099 3101 3103 3104 3107 3110 3112 3115 3118 3119 3120 3123 3121 3117 3122 3128 3131 3134 3135 3136 3138 3138 3142 3141 3135 3134 3138
3082 3081 3080 3078 3077 3076 3074 3073 3071 3070 3068 3067 3066 3064 3063 3061 3060 3059 3058 3057 3056 3056 3055 3055 3055 3055 3054 3052 3053 3056 3056 3054 3054 3053 3053 3055 3056 3057 3058 3059 3059 3060 3061 3062 3064 3065 3067 3069 3070 3071 3073 3075 3077 3080 3081 3083 3086 3088 3091 3092 3092 3095 3095 3096 3099 3103 3106 3107 3111 3117 3116 3114 3114 3111 3112 3121 3126 3128 3131 3133 3134 3135 3137 3139 3138 3134 3132 3134
3081 3079 3078 3077 3075 3074 3072 3070 3069 3067 3065 3064 3063 3062 3060 3059 3057 3056 3055 3055 3054 3053 3053 3053 3053 3053 3051 3048 3050 3054 3053 3052 3051 3049 3050 3052 3053 3054 3055 3056 3057 3057 3058 3059 3060 3062 3063 3065 3067 3068 3070 3071 3073 3076 3077 3080 3082 3084 3087 3088 3089 3089 3087 3089 3094 3098 3101 3102 3108 3114 3107 3101 3103 3105 3112 3121 3123 3125 3128 3129 3131 3132 3134 3136 3135 3133 3130 3131
3080 3078 3077 3075 3074 3072 3070 3068 3066 3064 3063 3061 3060 3059 3057 3056 3054 3053 3053 3052 3051 3050 3050 3050 3050 3050 3047 3045 3048 3050 3049 3049 3047 3046 3047 3048 3049 3050 3052 3052 3053 3055 3055 3056 3057 3059 3060 3061 3063 3064 3066 3067 3069 3071 3073 3075 3078 3080 3083 3083 3083 3081 3079 3084 3089 3092 3095 3098 3104 3108 3097 3092 3099 3104 3111 3118 3120 3122 3124 3125 3127 3129 3132 3132 3131 3132 3129 3128
3078 3077 3075 3073 3072 3070 3068 3066 3063 3062 3060 3058 3057 3056 3055 3053 3051 3051 3050 3049 3048 3048 3048 3048 3048 3047 3044 3043 3045 3045 3045 3045 3044 3044 3044 3044 3045 3047 3048 3049 3050 3051 3052 3053 3054 3055 3057 3058 3059 3060 3062 3065 3068 3069 3069 3070 3073 3076 3076 3074 3075 3075 3077 3082 3084 3086 3090 3094 3100 3100 3089 3088 3098 3103 3108 3114 3116 3118 3119 3121 3124 3125 3129 3128 3127 3130 3128 3126
3077 3075 3073 3071 3070 3068 3065 3063 3061 3059 3057 3056 3055 3054 3052 3049 3048 3048 3047 3046 3045 3045 3045 3045 3045 3044 3041 3041 3042 3041 3040 3040 3041 3041 3041 3041 3042 3043 3044 3046 3047 3048 3049 3050 3051 3052 3053 3055 3056 3057 3060 3063 3065 3066 3068 3068 3068 3069 3068 3066 3069 3071 3074 3078 3079 3081 3086 3091 3094 3090 3085 3089 3097 3101 3106 3110 3111 3113 3113 3116 3120 3121 3124 3124 3124 3128 3127 3124
3076 3074 3072 3070 3068 3065 3063 3061 3058 3056 3054 3053 3052 3051 3049 3046 3045 3045 3043 3042 3042 3042 3042 3042 3042 3040 3037 3038 3039 3039 3038 3039 3038 3037 3038 3039 3039 3040 3042 3042 3044 3045 3046 3047 3048 3049 3050 3051 3053 3054 3056 3058 3061 3064 3066 3062 3060 3060 3061 3062 3065 3068 3070 3073 3075 3077 3082 3086 3086 3086 3085 3089 3094 3098 3102 3105 3107 3108 3108 3112 3115 3116 3119 3121 3121 3124 3126 3123
3074 3072 3070 3068 3066 3063 3061 3058 3055 3053 3052 3051 3050 3048 3046 3044 3043 3043 3041 3039 3038 3039 3039 3039 3039 3037 3036 3036 3035 3035 3037 3039 3038 3034 3035 3036 3036 3037 3038 3040 3042 3044 3045 3045 3045 3047 3048 3048 3050 3052 3053 3053 3056 3058 3054 3050 3052 3055 3057 3060 3062 3065 3067 3068 3071 3074 3077 3080 3082 3084 3084 3086 3092 3096 3098 3100 3103 3104 3104 3108 3110 3111 3115 3117 3118 3120 3122 3122
3073 3071 3068 3066 3063 3061 3058 3056 3053 3051 3049 3049 3048 3046 3045 3042 3040 3040 3038 3036 3036 3037 3037 3036 3035 3034 3034 3034 3033 3033 3035 3037 3036 3035 3034 3033 3033 3034 3035 3037 3039 3041 3043 3043 3043 3043 3045 3046 3047 3047 3046 3046 3047 3048 3046 3048 3054 3057 3057 3059 3061 3062 3063 3064 3069 3072 3075 3077 3078 3079 3080 3084 3089 3092 3094 3096 3099 3100 3102 3104 3103 3106 3111 3113 3115 3116 3119 3120
3071 3069 3067 3064 3061 3058 3056 3053 3051 3049 3047 3046 3046 3045 3044 3041 3040 3039 3036 3034 3034 3034 3035 3036 3034 3030 3029 3031 3032 3033 3034 3034 3033 3035 3035 3032 3032 3033 3033 3035 3036 3038 3039 3040 3040 3041 3042 3043 3041 3040 3040 3041 3044 3046 3048 3053 3057 3058 3058 3058 3058 3060 3059 3062 3067 3069 3072 3073 3073 3075 3078 3082 3084 3086 3090 3093 3095 3096 3097 3099 3097 3100 3107 3109 3111 3113 3115 3117
3070 3067 3065 3062 3059 3056 3054 3051 3049 3047 3046 3044 3043 3043 3042 3040 3040 3039 3035 3033 3034 3034 3031 3032 3031 3028 3026 3028 3029 3030 3031 3031 3030 3032 3033 3031 3031 3032 3032 3033 3034 3035 3035 3036 3038 3040 3040 3038 3036 3036 3038 3041 3045 3047 3050 3053 3055 3056 3055 3055 3055 3056 3057 3060 3063 3065 3069 3069 3069 3073 3076 3077 3080 3082 3086 3088 3091 3091 3093 3094 3093 3095 3102 3105 3108 3110 3112 3114
3068 3066 3063 3060 3057 3054 3052 3049 3048 3046 3045 3043 3042 3041 3040 3039 3038 3036 3033 3029 3031 3032 3029 3026 3027 3025 3025 3025 3025 3026 3027 3027 3026 3028 3029 3028 3029 3029 3030 3032 3031 3031 3033 3034 3036 3037 3036 3032 3032 3034 3038 3041 3044 3046 3048 3050 3052 3052 3051 3051 3051 3052 3056 3059 3060 3062 3065 3065 3066 3070 3072 3074 3077 3080 3082 3083 3085 3086 3088 3091 3089 3090 3096 3100 3104 3107 3109 3111
3067 3064 3062 3058 3055 3053 3050 3048 3046 3045 3043 3042 3040 3039 3038 3037 3035 3033 3031 3026 3025 3027 3024 3022 3023 3022 3023 3023 3022 3022 3022 3023 3023 3024 3025 3025 3025 3027 3028 3029 3029 3030 3031 3031 3032 3032 3030 3027 3029 3033 3037 3039 3040 3042 3045 3047 3048 3048 3047 3047 3046 3048 3052 3053 3055 3058 3061 3061 3063 3067 3069 3071 3074 3076 3077 3078 3080 3082 3085 3087 3085 3086 3091 3096 3101 3104 3107 3107
3066 3063 3060 3057 3054 3051 3049 3047 3045 3043 3042 3040 3039 3037 3036 3035 3033 3031 3029 3024 3021 3021 3020 3019 3021 3022 3023 3022 3021 3020 3020 3021 3021 3022 3023 3022 3023 3025 3025 3026 3027 3027 3027 3028 3028 3027 3025 3025 3028 3031 3033 3035 3036 3038 3040 3042 3043 3043 3042 3042 3042 3045 3047 3049 3052 3056 3059 3060 3061 3065 3067 3066 3067 3070 3071 3074 3076 3078 3082 3083 3081 3083 3088 3093 3097 3101 3104 3103
3064 3061 3058 3056 3053 3050 3048 3046 3045 3043 3041 3039 3037 3036 3035 3034 3032 3030 3027 3023 3020 3019 3018 3018 3020 3022 3021 3021 3020 3019 3018 3017 3017 3018 3019 3019 3020 3022 3022 3023 3024 3023 3023 3024 3025 3023 3021 3023 3026 3027 3028 3031 3032 3033 3035 3037 3039 3039 3037 3038 3040 3043 3044 3048 3050 3052 3054 3054 3054 3060 3062 3060 3062 3065 3066 3070 3072 3074 3077 3078 3078 3081 3085 3090 3094 3097 3100 3100
3063 3060 3057 3054 3052 3049 3047 3044 3043 3042 3040 3039 3037 3036 3034 3032 3031 3029 3026 3023 3020 3019 3019 3019 3020 3019 3018 3018 3018 3017 3015 3013 3013 3014 3015 3016 3017 3019 3019 3020 3020 3019 3020 3022 3022 3020 3018 3019 3023 3024 3025 3028 3029 3029 3030 3033 3035 3033 3032 3036 3039 3040 3042 3044 3046 3046 3046 3047 3050 3055 3058 3057 3058 3059 3061 3065 3067 3070 3073 3073 3075 3078 3081 3086 3090 3094 3096 3094
3062 3059 3056 3053 3050 3048 3046 3044 3042 3041 3039 3038 3036 3035 3033 3031 3030 3028 3026 3023 3020 3019 3019 3019 3019 3018 3017 3017 3016 3015 3013 3011 3010 3011 3011 3013 3014 3016 3016 3016 3017 3017 3018 3020 3017 3014 3014 3017 3019 3020 3022 3024 3024 3024 3026 3030 3031 3028 3032 3038 3037 3037 3038 3039 3042 3042 3042 3046 3049 3052 3056 3057 3054 3052 3056 3060 3063 3065 3067 3069 3072 3074 3078 3083 3087 3091 3092 3089
3060 3058 3055 3052 3049 3047 3045 3044 3042 3041 3039 3037 3036 3034 3032 3030 3029 3027 3027 3025 3020 3019 3019 3017 3017 3016 3015 3014 3013 3012 3011 3009 3009 3009 3009 3011 3012 3013 3012 3012 3014 3014 3016 3017 3012 3009 3012 3014 3015 3017 3019 3019 3019 3021 3023 3027 3027 3027 3033 3037 3035 3035 3037 3037 3039 3039 3040 3043 3044 3046 3053 3055 3048 3047 3051 3055 3057 3059 3061 3065 3068 3071 3075 3080 3083 3088 3088 3085
3059 3056 3053 3051 3048 3046 3044 3043 3041 3040 3038 3036 3035 3033 3031 3029 3027 3026 3027 3026 3020 3018 3018 3016 3015 3014 3012 3011 3009 3008 3007 3007 3008 3006 3007 3009 3009 3010 3010 3010 3012 3012 3013 3013 3009 3008 3011 3012 3014 3015 3015 3015 3017 3020 3021 3023 3025 3028 3033 3034 3035 3036 3036 3036 3038 3037 3038 3039 3039 3041 3046 3047 3045 3044 3046 3048 3050 3053 3057 3062 3065 3068 3072 3076 3080 3084 3085 3083
3058 3055 3052 3049 3047 3045 3044 3042 3041 3039 3037 3035 3033 3031 3030 3028 3026 3026 3026 3023 3018 3016 3016 3015 3013 3012 3010 3009 3007 3007 3005 3004 3005 3004 3004 3007 3007 3007 3008 3009 3010 3010 3010 3010 3008 3008 3009 3009 3011 3012 3012 3013 3017 3019 3019 3021 3025 3028 3030 3032 3035 3036 3035 3034 3034 3034 3034 3033 3035 3038 3040 3042 3043 3040 3040 3041 3044 3049 3055 3058 3062 3065 3069 3074 3077 3081 3082 3081
3057 3054 3051 3048 3046 3044 3042 3040 3038 3036 3035 3033 3032 3030 3029 3027 3026 3026 3023 3019 3016 3015 3014 3013 3012 3010 3008 3007 3005 3004 3003 3002 3002 3002 3002 3004 3005 3005 3006 3006 3007 3008 3008 3007 3006 3006 3007 3006 3006 3008 3010 3012 3015 3017 3017 3020 3024 3025 3025 3027 3030 3032 3032 3030 3028 3030 3028 3026 3030 3035 3036 3039 3038 3035 3036 3039 3041 3047 3051 3054 3058 3062 3066 3070 3074 3078 3079 3079
3056 3053 3050 3047 3045 3044 3042 3040 3038 3036 3034 3032 3031 3029 3028 3027 3026 3024 3021 3018 3016 3014 3012 3010 3009 3007 3006 3004 3003 3001 3001 3000 2999 2999 3000 3002 3002 3003 3003 3004 3004 3005 3004 3003 3004 3004 3005 3003 3003 3004 3007 3009 3010 3013 3015 3017 3020 3020 3020 3023 3024 3024 3025 3023 3022 3024 3023 3020 3025 3032 3034 3033 3031 3032 3035 3037 3039 3043 3047 3051 3056 3058 3062 3067 3070 3075 3077 3077
3055 3052 3049 3047 3045 3044 3042 3040 3038 3036 3033 3032 3030 3029 3028 3028 3025 3022 3020 3019 3016 3013 3011 3009 3006 3005 3004 3001 2999 2999 2999 2999 2998 2997 2998 2999 3000 3000 3001 3002 3002 3002 3001 3001 3003 3003 3002 3001 3001 3002 3003 3005 3006 3008 3009 3011 3013 3014 3015 3017 3016 3015 3019 3021 3020 3019 3018 3019 3023 3031 3032 3028 3026 3030 3034 3035 3037 3040 3044 3049 3053 3055 3059 3064 3067 3072 3074 3076
3054 3051 3048 3046 3045 3043 3041 3038 3037 3035 3033 3031 3030 3028 3028 3028 3024 3020 3020 3018 3015 3012 3010 3008 3004 3002 3001 2999 2997 2997 2998 2997 2997 2997 2997 2997 2998 2998 2999 3000 3000 3001 3002 3001 3000 2999 2999 2998 2998 2998 2999 3001 3003 3004 3006 3010 3012 3011 3013 3015 3014 3013 3016 3017 3014 3012 3015 3018 3021 3026 3027 3023 3023 3027 3030 3033 3035 3038 3041 3046 3050 3053 3057 3062 3065 3069 3071 3073
3054 3050 3048 3046 3043 3041 3039 3037 3036 3034 3032 3031 3030 3029 3028 3026 3022 3020 3019 3016 3014 3010 3008 3006 3002 3000 2999 2998 2996 2996 2997 2996 2995 2996 2996 2996 2997 2996 2997 2998 2999 3001 3002 3000 2998 2998 2998 2996 2994 2995 2997 2999 3000 3001 3004 3009 3010 3011 3013 3014 3013 3013 3014 3013 3012 3013 3016 3018 3020 3021 3021 3022 3023 3025 3027 3030 3032 3035 3040 3043 3047 3050 3054 3059 3063 3065 3068 3071
3052 3049 3047 3043 3041 3039 3038 3037 3036 3034 3032 3030 3029 3029 3027 3025 3023 3020 3018 3015 3012 3009 3006 3004 3002 3000 2999 2997 2996 2995 2995 2995 2995 2995 2995 2996 2996 2996 2996 2997 2998 3000 2999 2998 2998 2998 2998 2996 2994 2996 2997 2998 2999 3001 3003 3004 3006 3010 3011 3011 3012 3014 3014 3013 3014 3015 3017 3019 3020 3019 3019 3022 3023 3024 3025 3027 3029 3033 3037 3041 3045 3048 3051 3056 3059 3062 3066 3069
3052 3049 3045 3042 3041 3041 3040 3038 3036 3034 3032 3030 3029 3028 3026 3024 3022 3019 3017 3014 3012 3010 3007 3004 3001 3000 2999 2997 2996 2995 2995 2994 2994 2995 2994 2994 2994 2994 2995 2996 2997 2998 2998 2999 2998 2997 2997 2996 2994 2995 2997 2997 3000 3003 3004 3002 3004 3009 3010 3010 3014 3015 3015 3015 3015 3015 3017 3019 3017 3015 3016 3018 3019 3021 3024 3026 3028 3031 3034 3039 3043 3046 3049 3053 3056 3060 3064 3066
3052 3048 3045 3043 3042 3041 3039 3037 3035 3033 3031 3030 3029 3027 3024 3022 3021 3019 3016 3013 3011 3009 3007 3005 3002 2999 2998 2997 2996 2995 2995 2995 2994 2994 2994 2993 2992 2991 2993 2995 2995 2996 2998 2999 2997 2996 2997 2996 2993 2994 2996 2997 3000 3004 3005 3001 3001 3008 3011 3011 3012 3011 3010 3013 3014 3015 3016 3016 3014 3012 3012 3014 3016 3019 3021 3024 3027 3029 3032 3037 3040 3043 3047 3050 3054 3059 3062 3064
3051 3047 3045 3043 3042 3040 3039 3038 3035 3032 3031 3030 3028 3026 3024 3022 3020 3019 3015 3012 3010 3007 3005 3004 3002 2999 2997 2997 2997 2996 2996 2996 2995 2995 2993 2993 2991 2991 2992 2994 2995 2996 2997 2998 2997 2996 2998 2996 2993 2994 2997 2999 3001 3003 3003 2999 2999 3005 3009 3009 3009 3008 3008 3009 3011 3011 3011 3012 3012 3010 3010 3012 3014 3017 3019 3022 3026 3028 3031 3034 3038 3041 3044 3048 3053 3056 3059 3061
3050 3047 3045 3045 3043 3041 3040 3038 3035 3032 3031 3029 3027 3025 3024 3021 3018 3017 3015 3012 3009 3007 3005 3003 3002 3000 2998 2997 2998 2997 2996 2996 2995 2995 2994 2993 2992 2991 2992 2994 2995 2995 2997 2998 2997 2997 2998 2996 2994 2995 2998 3000 3001 3000 3000 2999 2999 3001 3003 3004 3005 3006 3006 3007 3009 3008 3007 3009 3010 3009 3011 3011 3011 3014 3018 3021 3024 3027 3030 3034 3037 3040 3043 3047 3051 3054 3056 3058
3052 3049 3047 3046 3044 3041 3039 3037 3034 3032 3031 3029 3027 3025 3023 3020 3017 3015 3014 3011 3008 3006 3004 3003 3002 3000 2998 2998 2997 2997 2997 2996 2995 2995 2994 2993 2992 2991 2992 2993 2993 2995 2996 2998 2998 2997 2997 2997 2996 2996 2998 2999 2999 2998 2999 3000 3001 3001 3001 3001 3001 3002 3002 3003 3004 3005 3006 3007 3007 3008 3010 3010 3010 3013 3016 3020 3023 3026 3030 3034 3037 3039 3042 3045 3049 3051 3053 3055
3053 3050 3049 3048 3045 3043 3040 3038 3035 3034 3032 3031 3029 3026 3022 3019 3016 3014 3012 3010 3008 3005 3004 3002 3001 3000 2999 2998 2998 2997 2997 2996 2995 2995 2994 2993 2992 2992 2992 2993 2993 2995 2996 2997 2998 2997 2997 2998 2997 2996 2997 2998 2999 2999 2999 3000 3002 3002 3002 3001 3000 3001 3001 2999 3000 3002 3003 3004 3005 3008 3009 3010 3011 3013 3014 3018 3023 3026 3029 3033 3035 3039 3041 3044 3047 3049 3051 3054
3053 3051 3050 3048 3045 3043 3040 3038 3037 3036 3035 3032 3030 3026 3022 3019 3016 3014 3012 3009 3007 3005 3003 3002 3001 3000 2999 2998 2998 2997 2997 2996 2995 2995 2994 2993 2993 2992 2993 2994 2994 2995 2996 2996 2997 2997 2997 2998 2998 2997 2997 2999 3000 3001 3000 3000 3001 3002 3001 3000 2999 3001 3001 2999 3000 3001 3002 3002 3002 3005 3009 3009 3011 3013 3014 3017 3022 3026 3029 3031 3035 3038 3040 3042 3045 3046 3049 3053
3053 3051 3048 3046 3044 3043 3041 3039 3038 3036 3034 3031 3028 3025 3023 3020 3017 3014 3011 3009 3007 3004 3003 3001 3000 2999 2998 2998 2997 2997 2997 2996 2995 2995 2994 2994 2993 2993 2993 2995 2995 2995 2996 2995 2996 2997 2997 2997 2997 2997 2999 3000 3001 3002 3000 2998 2999 2999 2999 2999 2999 3000 3000 3000 3000 3002 3002 3001 3000 3003 3007 3007 3008 3012 3015 3017 3021 3025 3028 3031 3034 3037 3038 3040 3042 3044 3048 3051
3052 3050 3049 3046 3044 3043 3041 3040 3038 3035 3033 3030 3027 3024 3022 3020 3018 3015 3012 3009 3007 3004 3002 3000 2999 2998 2997 2997 2996 2996 2996 2996 2995 2995 2994 2994 2993 2992 2993 2995 2995 2995 2996 2995 2995 2997 2997 2997 2997 2997 2997 2999 3000 2999 2998 2998 2998 2998 2998 2998 2998 3000 3000 2999 3001 3001 3001 3000 3000 3001 3003 3005 3007 3011 3015 3018 3021 3025 3027 3031 3034 3036 3037 3038 3040 3043 3047 3050
3052 3050 3050 3048 3045 3042 3040 3039 3037 3035 3033 3030 3026 3024 3022 3019 3017 3015 3012 3009 3006 3004 3002 2999 2998 2997 2997 2996 2996 2995 2995 2995 2995 2995 2994 2994 2993 2992 2993 2995 2994 2995 2996 2996 2996 2998 2997 2997 2997 2996 2995 2995 2996 2996 2996 2997 2998 2998 2997 2997 2998 2999 2999 3000 3001 3000 3000 3000 3000 3000 3001 3005 3009 3012 3016 3019 3021 3024 3027 3030 3032 3035 3037 3038 3039 3042 3045 3048
3052 3051 3050 3048 3045 3043 3041 3040 3039 3036 3034 3031 3027 3024 3022 3020 3017 3014 3011 3008 3006 3003 3001 2999 2997 2996 2996 2995 2995 2994 2994 2994 2994 2994 2994 2994 2993 2991 2992 2994 2994 2995 2996 2996 2997 2997 2997 2996 2996 2996 2995 2995 2996 2996 2996 2997 2997 2997 2997 2997 2998 2998 2999 3001 3001 3000 3000 3000 3002 3002 3004 3007 3011 3014 3017 3019 3022 3024 3026 3028 3031 3034 3036 3037 3038 3041 3045 3047
3052 3051 3049 3047 3045 3043 3041 3041 3039 3036 3033 3031 3029 3026 3023 3021 3018 3014 3010 3008 3006 3004 3001 2998 2997 2996 2995 2995 2995 2993 2993 2992 2993 2993 2993 2994 2993 2992 2992 2993 2995 2995 2995 2996 2997 2997 2996 2995 2995 2996 2996 2996 2997 2998 2998 2997 2997 2997 2997 2997 2998 2998 2999 3001 3001 3001 3001 3001 3002 3004 3007 3010 3013 3015 3018 3020 3022 3024 3025 3028 3031 3032 3033 3035 3037 3041 3044 3045
3052 3050 3048 3046 3045 3043 3040 3039 3037 3034 3032 3031 3029 3027 3025 3021 3018 3015 3012 3009 3006 3004 3001 2998 2996 2995 2994 2995 2993 2992 2992 2992 2992 2992 2993 2993 2994 2993 2993 2994 2995 2995 2996 2997 2997 2996 2996 2995 2995 2996 2997 2995 2995 2996 2998 2998 2997 2997 2998 2998 2998 2999 3000 3002 3002 3002 3003 3004 3005 3007 3009 3011 3013 3013 3015 3018 3020 3023 3026 3028 3029 3028 3030 3033 3037 3040 3043 3044
3052 3050 3048 3047 3045 3042 3040 3038 3036 3035 3034 3033 3030 3027 3025 3021 3018 3015 3013 3009 3006 3003 3001 2998 2996 2995 2994 2994 2993 2992 2992 2992 2992 2992 2993 2993 2994 2994 2994 2995 2996 2996 2997 2997 2996 2996 2997 2996 2995 2996 2997 2996 2994 2994 2997 2998 2997 2997 2998 2999 2999 3000 3001 3003 3004 3004 3005 3007 3008 3010 3011 3012 3012 3013 3014 3016 3018 3022 3025 3026 3027 3026 3028 3032 3036 3039 3042 3043
3051 3049 3048 3046 3045 3042 3039 3038 3037 3036 3035 3033 3030 3027 3024 3021 3018 3015 3012 3010 3007 3004 3001 2998 2997 2996 2994 2993 2993 2993 2993 2992 2992 2992 2993 2994 2994 2994 2995 2996 2996 2997 2997 2997 2997 2997 2997 2997 2996 2997 2996 2995 2995 2994 2995 2996 2998 2998 2999 3000 3000 3000 3000 3003 3006 3006 3007 3009 3010 3011 3013 3014 3014 3015 3016 3017 3018 3021 3024 3026 3026 3027 3029 3032 3036 3038 3041 3043
3051 3049 3047 3045 3044 3041 3038 3037 3037 3037 3036 3033 3030 3027 3024 3021 3018 3016 3012 3009 3008 3006 3003 3000 2997 2996 2994 2993 2993 2993 2993 2992 2992 2992 2993 2995 2995 2995 2995 2996 2996 2996 2997 2997 2997 2997 2997 2997 2997 2996 2995 2994 2995 2995 2994 2996 2998 2998 2998 3000 3001 3002 3002 3003 3007 3009 3010 3011 3011 3013 3015 3016 3016 3016 3017 3018 3019 3021 3023 3025 3026 3028 3031 3033 3035 3037 3040 3042